Location: Newark
(34.9500°N, 139.9667°E)
Time: 03:22:05
(UTC+00:00)

Vanguard 1 Rocket - Pass Details

Date: 09 December 2019
Orbit: 650 x 4226 km, 34.3° (Epoch: 26 January)

Event Time Altitude Azimuth Distance (km) Brightness Sun altitude
Rises 13:17:51 0° 258° (WSW) 7,174 12.2 -69.7°
Reaches altitude 10° 13:23:26 10° 258° (WSW) 5,604 11.5 -70.7°
Enters shadow 13:26:16 16° 258° (WSW) 4,765 11.1 -71.2°
Maximum altitude 13:38:07 84° 173° (S) 1,628 - -73.1°
Drops below altitude 10° 13:45:20 10° 86° (E) 2,933 - -74.1°
Sets 13:47:23 0° 86° (E) 3,649 - -74.4°
